DW7287 Weather Reports


time (UTC)temp
C
wind
direction
speed
KPH
gust
KPH
rain 1hr
cm
rain 24hr
cm
rain mn
cm
humidity
%
barometer
mb
20260506201556 13 0 0.0 4.8 0.00 1.93 1.88 87 1011.8
20260506194554 12 360 0.0 6.4 0.00 1.93 1.88 86 1011.8
20260506193104 12 360 1.6 4.8 0.00 1.93 1.88 88 1011.8
20260506191556 12 360 0.0 4.8 0.00 1.93 1.88 89 1011.8
20260506190058 12 360 0.0 8.0 0.00 1.93 1.88 89 1011.7
20260506184553 12 0 0.0 6.4 0.00 1.93 1.88 90 1011.8
20260506183053 12 360 3.2 8.0 0.00 1.93 1.88 89 1011.6
20260506181556 12 360 3.2 14.5 0.00 1.93 1.88 89 1011.7
20260506180055 12 360 3.2 12.9 0.00 1.93 1.88 90 1011.7
20260506174555 12 360 3.2 9.7 0.00 1.93 1.88 89 1011.6
20260506173059 12 360 1.6 12.9 0.00 1.93 1.88 90 1011.7
20260506171554 12 360 3.2 12.9 0.00 1.93 1.88 91 1011.6
20260506170107 12 360 4.8 17.7 0.00 1.93 1.88 91 1011.3
20260506164624 12 360 6.4 16.1 0.00 1.93 1.88 93 1011.4
20260506163101 12 360 4.8 12.9 0.00 1.93 1.88 94 1011.2
20260506161554 12 360 3.2 9.7 0.00 1.93 1.88 93 1011.2
20260506160113 12 360 3.2 9.7 0.03 1.93 1.88 93 1011.1
20260506154557 12 360 4.8 12.9 0.03 1.93 1.88 92 1010.9
20260506153051 12 360 3.2 14.5 0.03 1.93 1.88 92 1010.5
20260506151556 13 360 4.8 14.5 0.05 1.93 1.88 92 1010.0
20260506144551 15 360 1.6 8.0 0.05 1.91 1.85 95 1009.4
20260506143057 15 360 0.0 8.0 0.05 1.91 1.85 95 1009.4
20260506141551 15 360 0.0 4.8 0.03 1.88 1.83 95 1009.3
20260506140051 15 360 1.6 6.4 0.05 1.88 1.83 95 1008.8
20260506134554 15 0 0.0 4.8 0.08 1.85 1.80 95 1008.6
20260506133108 14 360 0.0 4.8 0.10 1.85 1.80 95 1008.2
20260506131611 14 360 1.6 6.4 0.10 1.85 1.80 96 1008.1
20260506130053 14 360 1.6 4.8 0.13 1.83 1.78 95 1008.1
20260506124552 13 360 0.0 12.9 0.10 1.78 1.73 95 1008.2
20260506123056 13 0 0.0 6.4 0.13 1.75 1.70 95 1007.8
20260506121556 13 360 0.0 4.8 0.23 1.75 1.70 95 1008.0
20260506120104 13 0 0.0 3.2 0.23 1.70 1.65 95 1007.7
20260506114550 13 0 0.0 1.6 0.20 1.68 1.63 95 1007.9
20260506113052 13 0 0.0 1.6 0.20 1.63 1.57 95 1008.1
20260506111555 13 0 0.0 3.2 0.23 1.52 1.47 95 1007.9
20260506110109 13 360 0.0 3.2 0.25 1.47 1.42 95 1007.8
20260506104611 13 0 0.0 3.2 0.33 1.47 1.42 95 1007.5
20260506103050 13 0 0.0 6.4 0.38 1.42 1.37 95 1007.4
20260506101553 13 360 0.0 4.8 0.51 1.30 1.24 95 1007.1
20260506094600 13 0 0.0 1.6 0.46 1.14 1.09 94 1006.8
20260506093053 13 0 0.0 4.8 0.41 1.04 0.99 94 1006.9
20260506091551 13 0 0.0 3.2 0.20 0.79 0.74 94 1007.1
20260506090051 13 0 0.0 3.2 0.30 0.74 0.69 93 1007.4
20260506084624 13 0 0.0 3.2 0.30 0.69 0.64 93 1007.9
20260506083056 13 0 0.0 3.2 0.30 0.64 0.58 92 1007.8
20260506081558 13 0 0.0 3.2 0.28 0.58 0.53 92 1007.6
20260506073052 13 0 0.0 4.8 0.20 0.33 0.28 91 1007.4
20260506071558 13 360 0.0 1.6 0.20 0.30 0.25 91 1007.5
20260506061600 13 360 0.0 3.2 0.00 0.10 0.05 93 1007.6
20260506044554 14 0 0.0 1.6 0.05 0.08 0.03 91 1008.5
20260506043050 14 0 0.0 3.2 0.05 0.08 0.03 90 1008.3
20260506041604 14 0 0.0 1.6 0.08 0.08 0.03 88 1008.9
20260506040053 15 0 0.0 1.6 0.05 0.05 0.00 86 1008.6
20260506034554 15 0 0.0 1.6 0.03 0.03 0.03 84 1008.6
20260506033051 15 360 0.0 3.2 0.03 0.03 0.03 79 1008.8
20260506031555 16 0 0.0 3.2 0.00 0.00 0.00 72 1009.2
20260506030053 17 360 0.0 3.2 0.00 0.00 0.00 66 1009.4
20260506024552 17 0 0.0 1.6 0.00 0.00 0.00 65 1009.0
20260506023104 17 0 0.0 1.6 0.00 0.00 0.00 65 1008.8
20260506021609 17 0 0.0 1.6 0.00 0.00 0.00 62 1008.8
20260506020051 18 0 0.0 1.6 0.00 0.00 0.00 62 1008.7
20260506014551 18 0 0.0 1.6 0.00 0.00 0.00 57 1008.7
20260506013110 19 0 0.0 1.6 0.00 0.00 0.00 58 1008.7
20260506011615 20 360 0.0 1.6 0.00 0.00 0.00 51 1009.0
20260506010100 20 360 0.0 1.6 0.00 0.00 0.00 47 1009.1
20260506004602 20 0 0.0 1.6 0.00 0.00 0.00 45 1009.0
20260506003058 21 0 0.0 8.0 0.00 0.00 0.00 45 1009.1
20260506001556 21 360 1.6 16.1 0.00 0.00 0.00 44 1009.5
20260506000054 21 360 4.8 25.7 0.00 0.00 0.00 45 1009.9
20260505234557 21 0 0.0 3.2 0.00 0.00 0.00 47 1009.5
20260505233104 21 0 0.0 3.2 0.00 0.00 0.00 47 1009.4
20260505231605 22 0 0.0 3.2 0.00 0.00 0.00 46 1009.3
20260505230054 22 0 0.0 3.2 0.00 0.00 0.00 46 1009.3
20260505224602 22 0 0.0 8.0 0.00 0.00 0.00 47 1009.1
20260505223058 22 202 0.0 4.8 0.00 0.00 0.00 48 1009.4
20260505221600 22 0 0.0 6.4 0.00 0.00 0.00 45 1009.6
20260505220101 22 196 1.6 16.1 0.00 0.00 0.00 43 1009.6
20260505214559 22 269 1.6 6.4 0.00 0.00 0.00 44 1009.5
20260505213056 23 0 1.6 9.7 0.00 0.00 0.00 43 1009.7
20260505211555 23 295 3.2 16.1 0.00 0.00 0.00 44 1009.8
20260505210055 23 307 1.6 8.0 0.00 0.00 0.00 45 1010.1
20260505204558 23 0 1.6 11.3 0.00 0.00 0.00 44 1010.3
20260505203117 23 256 1.6 6.4 0.00 0.00 0.00 46 1010.6